Location: Buchloe
(48.0161°N, 10.7316°E)
Time: 04:40:36
(UTC+02:00)

ISS - Pass Details

Date: 07 July 2025
Orbit: 413 x 417 km, 51.6° (Epoch: 12 July)

Event Time Altitude Azimuth Distance (km) Brightness Sun altitude
Rises 00:24:14 0° 250° (WSW) 2,346 0.0 -18.2°
Reaches altitude 10° 00:26:20 10° 252° (WSW) 1,486 -1.0 -18.3°
Maximum altitude 00:29:40 78° 338° (NNW) 429 -3.7 -18.4°
Drops below altitude 10° 00:33:01 10° 66° (ENE) 1,494 -0.8 -18.5°
Sets 00:35:07 0° 68° (ENE) 2,359 0.2 -18.6°
